When you browse on this site, cookies collect data to enhance your experience and personalize the content and advertising you see.
Visit our Privacy Policy to learn more. By continuing to use the site, you agree to this use of cookies and data.
  • In Hungary
  • List of Countries
  • For 7 days
  • Water Temperature
  • Satellite Maps
  • Weather Map
  • News
  • Weather Widgets
  • user-avatar
    Login

    Hourly Weather Iwanowice Wloscianskie

    Today, 25 May, Saturday

    Time Temperature Precipitation Wind Pressure Humidity
    00:00 +11°C° 0 mm 1 mps 734 mmHg 92%
    01:00 +10°C° 0 mm 2 mps 734 mmHg 92%
    02:00 +10°C° 0 mm 2 mps 734 mmHg 92%
    03:00 +10°C° 0 mm 2 mps 734 mmHg 92%
    04:00 +9°C° 0 mm 2 mps 734 mmHg 92%
    05:00 +12°C° 0 mm 2 mps 734 mmHg 88%
    06:00 +13°C° 0 mm 2 mps 734 mmHg 83%
    07:00 +14°C° 0 mm 3 mps 735 mmHg 76%
    08:00 +16°C° 0 mm 3 mps 735 mmHg 69%
    09:00 +18°C° 0 mm 3 mps 735 mmHg 62%
    10:00 +20°C° 0 mm 3 mps 735 mmHg 55%
    11:00 +20°C° 0 mm 3 mps 735 mmHg 55%
    12:00 +21°C° 0 mm 3 mps 735 mmHg 54%
    13:00 +21°C° 0 mm 3 mps 735 mmHg 55%
    14:00 +21°C° 0.2 mm 3 mps 735 mmHg 58%
    15:00 +21°C° 0.2 mm 3 mps 735 mmHg 60%
    16:00 +21°C° 0.2 mm 3 mps 735 mmHg 63%
    17:00 +19°C° 0.2 mm 3 mps 735 mmHg 68%
    18:00 +18°C° 0.2 mm 2 mps 735 mmHg 73%
    19:00 +18°C° 0.2 mm 1 mps 735 mmHg 78%
    20:00 +16°C° 0 mm 1 mps 735 mmHg 81%
    21:00 +15°C° 0 mm 1 mps 735 mmHg 84%
    22:00 +14°C° 0 mm 1 mps 735 mmHg 87%
    23:00 +13°C° 0 mm 1 mps 735 mmHg 87%

    Tomorrow, 26 May, Sunday

    Time Temperature Precipitation Wind Pressure Humidity
    00:00 +13°C° 0 mm 1 mps 736 mmHg 88%
    01:00 +12°C° 0 mm 1 mps 736 mmHg 89%
    02:00 +12°C° 0 mm 1 mps 736 mmHg 90%
    03:00 +12°C° 0 mm 1 mps 736 mmHg 90%
    04:00 +12°C° 0 mm 1 mps 736 mmHg 91%
    05:00 +13°C° 0 mm 1 mps 736 mmHg 87%
    06:00 +15°C° 0 mm 2 mps 736 mmHg 83%
    07:00 +17°C° 0 mm 2 mps 736 mmHg 80%
    08:00 +18°C° 0.1 mm 2 mps 736 mmHg 76%
    09:00 +19°C° 0.1 mm 3 mps 736 mmHg 72%
    10:00 +20°C° 0.1 mm 3 mps 736 mmHg 68%
    11:00 +21°C° 0.1 mm 3 mps 736 mmHg 65%
    12:00 +22°C° 0.1 mm 4 mps 736 mmHg 62%
    13:00 +22°C° 0.1 mm 4 mps 735 mmHg 58%
    14:00 +22°C° 0.2 mm 4 mps 735 mmHg 60%
    15:00 +22°C° 0.2 mm 3 mps 735 mmHg 61%
    16:00 +22°C° 0.2 mm 3 mps 735 mmHg 63%
    17:00 +21°C° 0.3 mm 3 mps 735 mmHg 69%
    18:00 +19°C° 0.3 mm 2 mps 735 mmHg 74%
    19:00 +19°C° 0.3 mm 1 mps 735 mmHg 80%
    20:00 +17°C° 0 mm 2 mps 735 mmHg 83%
    21:00 +16°C° 0 mm 2 mps 735 mmHg 86%
    22:00 +15°C° 0 mm 2 mps 735 mmHg 90%
    23:00 +15°C° 0 mm 2 mps 735 mmHg 90%

    Day after tomorrow, 27 May, Monday

    Time Temperature Precipitation Wind Pressure Humidity
    00:00 +14°C° 0 mm 2 mps 735 mmHg 91%
    01:00 +14°C° 0 mm 2 mps 735 mmHg 92%
    02:00 +14°C° 0 mm 2 mps 735 mmHg 92%
    03:00 +14°C° 0 mm 2 mps 734 mmHg 91%
    04:00 +13°C° 0 mm 2 mps 734 mmHg 91%
    05:00 +15°C° 0.1 mm 2 mps 734 mmHg 88%
    06:00 +17°C° 0.1 mm 2 mps 734 mmHg 84%
    07:00 +19°C° 0.1 mm 2 mps 734 mmHg 80%
    08:00 +20°C° 0.5 mm 3 mps 734 mmHg 76%
    09:00 +21°C° 0.5 mm 4 mps 734 mmHg 72%
    10:00 +23°C° 0.5 mm 4 mps 734 mmHg 68%
    11:00 +23°C° 0.4 mm 4 mps 734 mmHg 66%
    12:00 +25°C° 0.4 mm 4 mps 734 mmHg 64%
    13:00 +25°C° 0.4 mm 4 mps 734 mmHg 61%
    14:00 +25°C° 0.1 mm 4 mps 734 mmHg 61%
    15:00 +25°C° 0.1 mm 3 mps 733 mmHg 60%
    16:00 +25°C° 0.1 mm 2 mps 733 mmHg 60%
    17:00 +24°C° 0.2 mm 2 mps 733 mmHg 65%
    18:00 +23°C° 0.2 mm 2 mps 733 mmHg 70%
    19:00 +21°C° 0.2 mm 1 mps 733 mmHg 75%
    20:00 +20°C° 0.1 mm 1 mps 733 mmHg 77%
    21:00 +20°C° 0.1 mm 1 mps 732 mmHg 79%
    22:00 +19°C° 0.1 mm 1 mps 732 mmHg 82%
    23:00 +19°C° 0.7 mm 1 mps 732 mmHg 85%

    28 May, Tuesday

    Time Temperature Precipitation Wind Pressure Humidity
    00:00 +18°C° 0.7 mm 1 mps 732 mmHg 88%
    01:00 +18°C° 0.7 mm 1 mps 731 mmHg 91%
    02:00 +18°C° 0.5 mm 1 mps 731 mmHg 93%
    03:00 +16°C° 0.5 mm 1 mps 730 mmHg 94%
    04:00 +16°C° 0.5 mm 2 mps 730 mmHg 96%
    05:00 +17°C° 0 mm 2 mps 730 mmHg 92%
    06:00 +19°C° 0 mm 3 mps 730 mmHg 88%
    07:00 +20°C° 0 mm 3 mps 730 mmHg 84%
    08:00 +21°C° 0 mm 3 mps 729 mmHg 76%
    09:00 +22°C° 0 mm 4 mps 729 mmHg 67%
    10:00 +25°C° 0 mm 4 mps 729 mmHg 59%
    11:00 +25°C° 0 mm 4 mps 729 mmHg 60%
    12:00 +25°C° 0 mm 3 mps 729 mmHg 61%
    13:00 +25°C° 0 mm 3 mps 728 mmHg 61%
    14:00 +25°C° 0.4 mm 2 mps 728 mmHg 63%
    15:00 +25°C° 0.4 mm 2 mps 728 mmHg 65%
    16:00 +24°C° 0.4 mm 1 mps 727 mmHg 66%
    17:00 +23°C° 1.7 mm 2 mps 727 mmHg 72%
    18:00 +20°C° 1.7 mm 2 mps 727 mmHg 77%
    19:00 +19°C° 1.7 mm 3 mps 727 mmHg 83%
    20:00 +17°C° 0.4 mm 3 mps 728 mmHg 87%
    21:00 +15°C° 0.4 mm 4 mps 728 mmHg 91%
    22:00 +14°C° 0.4 mm 4 mps 728 mmHg 95%
    23:00 +13°C° 0 mm 4 mps 728 mmHg 94%

    29 May, Wednesday

    Time Temperature Precipitation Wind Pressure Humidity
    00:00 +12°C° 0 mm 4 mps 729 mmHg 94%
    01:00 +11°C° 0 mm 4 mps 729 mmHg 94%
    02:00 +11°C° 0 mm 4 mps 729 mmHg 93%
    03:00 +11°C° 0 mm 3 mps 730 mmHg 93%
    04:00 +11°C° 0 mm 3 mps 730 mmHg 93%
    05:00 +11°C° 0 mm 3 mps 730 mmHg 92%
    06:00 +11°C° 0 mm 3 mps 731 mmHg 91%
    07:00 +11°C° 0 mm 3 mps 731 mmHg 90%
    08:00 +12°C° 0.1 mm 3 mps 731 mmHg 86%
    09:00 +13°C° 0.1 mm 3 mps 731 mmHg 83%
    10:00 +14°C° 0.1 mm 3 mps 732 mmHg 79%
    11:00 +14°C° 0.8 mm 2 mps 732 mmHg 82%
    12:00 +14°C° 0.8 mm 2 mps 732 mmHg 85%
    13:00 +14°C° 0.8 mm 2 mps 732 mmHg 88%
    14:00 +12°C° 0.9 mm 3 mps 732 mmHg 90%
    15:00 +12°C° 0.9 mm 3 mps 733 mmHg 91%
    16:00 +12°C° 0.9 mm 3 mps 733 mmHg 92%
    17:00 +11°C° 0.8 mm 3 mps 733 mmHg 93%
    18:00 +11°C° 0.8 mm 3 mps 733 mmHg 94%
    19:00 +11°C° 0.8 mm 3 mps 734 mmHg 95%
    20:00 +11°C° 0.7 mm 3 mps 734 mmHg 95%
    21:00 +11°C° 0.7 mm 4 mps 735 mmHg 95%
    22:00 +10°C° 0.7 mm 4 mps 735 mmHg 95%
    23:00 +10°C° 0.3 mm 3 mps 735 mmHg 95%

    30 May, Thursday

    Time Temperature Precipitation Wind Pressure Humidity
    00:00 +10°C° 0.3 mm 3 mps 736 mmHg 96%
    01:00 +10°C° 0.3 mm 3 mps 736 mmHg 96%
    02:00 +10°C° 0.4 mm 3 mps 736 mmHg 96%
    03:00 +10°C° 0.4 mm 3 mps 737 mmHg 96%
    04:00 +10°C° 0.4 mm 3 mps 737 mmHg 96%
    05:00 +11°C° 0.3 mm 4 mps 738 mmHg 95%
    06:00 +10°C° 0.3 mm 5 mps 738 mmHg 93%
    07:00 +10°C° 0.3 mm 6 mps 739 mmHg 92%
    08:00 +10°C° 0 mm 6 mps 739 mmHg 87%
    09:00 +12°C° 0 mm 5 mps 740 mmHg 81%
    10:00 +13°C° 0 mm 5 mps 741 mmHg 76%
    11:00 +14°C° 0 mm 5 mps 741 mmHg 69%
    12:00 +15°C° 0 mm 4 mps 741 mmHg 62%
    13:00 +17°C° 0 mm 4 mps 741 mmHg 55%
    14:00 +17°C° 0 mm 3 mps 741 mmHg 55%
    15:00 +17°C° 0 mm 3 mps 741 mmHg 55%
    16:00 +17°C° 0 mm 3 mps 741 mmHg 55%
    17:00 +16°C° 0 mm 2 mps 741 mmHg 60%
    18:00 +15°C° 0 mm 1 mps 741 mmHg 65%
    19:00 +13°C° 0 mm 1 mps 741 mmHg 71%
    20:00 +12°C° 0 mm 1 mps 742 mmHg 73%
    21:00 +11°C° 0 mm 1 mps 742 mmHg 76%
    22:00 +10°C° 0 mm 1 mps 742 mmHg 79%
    23:00 +9°C° 0 mm 1 mps 742 mmHg 80%
    Show more